When you browse on this site, cookies collect data to enhance your experience and personalize the content and advertising you see.
Visit our Privacy Policy to learn more. By continuing to use the site, you agree to this use of cookies and data.
  • In Romania
  • List of Countries
  • For 7 days
  • Water Temperature
  • Weather Map
  • Weather Widgets
  • user-avatar
    Login

    Hourly Weather Florianópolis

    Today, 18 November, Monday

    Time Temperature Precipitation Wind Pressure Humidity
    00:00 +19°C° 0 mm 1 mps 762 mmHg 87%
    01:00 +19°C° 0 mm 1 mps 762 mmHg 88%
    02:00 +19°C° 0 mm 1 mps 761 mmHg 88%
    03:00 +19°C° 0 mm 1 mps 762 mmHg 88%
    04:00 +19°C° 0 mm 1 mps 762 mmHg 87%
    05:00 +19°C° 0 mm 1 mps 762 mmHg 86%
    06:00 +19°C° 0 mm 1 mps 762 mmHg 85%
    07:00 +22°C° 0 mm 1 mps 762 mmHg 74%
    08:00 +24°C° 0 mm 1 mps 762 mmHg 63%
    09:00 +26°C° 0 mm 1 mps 763 mmHg 51%
    10:00 +27°C° 0 mm 2 mps 763 mmHg 48%
    11:00 +28°C° 0 mm 2 mps 762 mmHg 44%
    12:00 +29°C° 0 mm 3 mps 762 mmHg 41%
    13:00 +29°C° 0 mm 3 mps 762 mmHg 42%
    14:00 +29°C° 0 mm 3 mps 762 mmHg 44%
    15:00 +29°C° 0 mm 4 mps 761 mmHg 46%
    16:00 +27°C° 0 mm 3 mps 761 mmHg 53%
    17:00 +26°C° 0 mm 3 mps 761 mmHg 60%
    18:00 +24°C° 0 mm 3 mps 761 mmHg 67%
    19:00 +23°C° 0 mm 2 mps 762 mmHg 71%
    20:00 +21°C° 0 mm 2 mps 763 mmHg 76%
    21:00 +20°C° 0 mm 2 mps 763 mmHg 81%
    22:00 +20°C° 0 mm 2 mps 763 mmHg 82%
    23:00 +19°C° 0 mm 2 mps 763 mmHg 83%

    Tomorrow, 19 November, Tuesday

    Time Temperature Precipitation Wind Pressure Humidity
    00:00 +19°C° 0 mm 2 mps 763 mmHg 84%
    01:00 +19°C° 0 mm 2 mps 763 mmHg 84%
    02:00 +19°C° 0 mm 2 mps 763 mmHg 85%
    03:00 +19°C° 0 mm 2 mps 762 mmHg 86%
    04:00 +19°C° 0 mm 2 mps 762 mmHg 85%
    05:00 +19°C° 0 mm 2 mps 763 mmHg 85%
    06:00 +20°C° 0 mm 1 mps 763 mmHg 84%
    07:00 +21°C° 0 mm 2 mps 763 mmHg 75%
    08:00 +24°C° 0 mm 2 mps 763 mmHg 66%
    09:00 +26°C° 0 mm 2 mps 764 mmHg 57%
    10:00 +27°C° 0 mm 2 mps 763 mmHg 55%
    11:00 +29°C° 0 mm 3 mps 763 mmHg 52%
    12:00 +30°C° 0 mm 4 mps 763 mmHg 50%
    13:00 +29°C° 0 mm 4 mps 762 mmHg 53%
    14:00 +29°C° 0 mm 4 mps 762 mmHg 56%
    15:00 +29°C° 0 mm 4 mps 761 mmHg 59%
    16:00 +28°C° 0 mm 4 mps 762 mmHg 66%
    17:00 +26°C° 0 mm 4 mps 762 mmHg 72%
    18:00 +25°C° 0 mm 3 mps 762 mmHg 78%
    19:00 +25°C° 0 mm 3 mps 762 mmHg 81%
    20:00 +24°C° 0 mm 3 mps 763 mmHg 84%
    21:00 +24°C° 0 mm 3 mps 763 mmHg 87%
    22:00 +22°C° 0.1 mm 3 mps 763 mmHg 88%
    23:00 +22°C° 0.1 mm 3 mps 764 mmHg 89%

    Day after tomorrow, 20 November, Wednesday

    Time Temperature Precipitation Wind Pressure Humidity
    00:00 +21°C° 0.1 mm 2 mps 764 mmHg 91%
    01:00 +21°C° 0.1 mm 2 mps 763 mmHg 91%
    02:00 +21°C° 0.1 mm 2 mps 763 mmHg 92%
    03:00 +21°C° 0.1 mm 2 mps 763 mmHg 92%
    04:00 +21°C° 0.1 mm 2 mps 763 mmHg 92%
    05:00 +21°C° 0.1 mm 2 mps 763 mmHg 92%
    06:00 +21°C° 0.1 mm 2 mps 763 mmHg 92%
    07:00 +23°C° 0.2 mm 2 mps 763 mmHg 88%
    08:00 +25°C° 0.2 mm 3 mps 764 mmHg 84%
    09:00 +26°C° 0.2 mm 3 mps 764 mmHg 79%
    10:00 +27°C° 0.1 mm 4 mps 764 mmHg 74%
    11:00 +28°C° 0.1 mm 4 mps 764 mmHg 68%
    12:00 +29°C° 0.1 mm 5 mps 763 mmHg 63%
    13:00 +29°C° 0 mm 5 mps 763 mmHg 64%
    14:00 +28°C° 0 mm 4 mps 762 mmHg 65%
    15:00 +28°C° 0 mm 4 mps 762 mmHg 66%
    16:00 +27°C° 0 mm 4 mps 762 mmHg 71%
    17:00 +26°C° 0 mm 4 mps 762 mmHg 76%
    18:00 +25°C° 0 mm 4 mps 762 mmHg 81%
    19:00 +25°C° 0.1 mm 4 mps 762 mmHg 84%
    20:00 +23°C° 0.1 mm 4 mps 762 mmHg 87%
    21:00 +23°C° 0.1 mm 4 mps 763 mmHg 91%
    22:00 +23°C° 0.1 mm 4 mps 763 mmHg 91%
    23:00 +23°C° 0.1 mm 4 mps 763 mmHg 91%

    21 November, Thursday

    Time Temperature Precipitation Wind Pressure Humidity
    00:00 +23°C° 0.1 mm 4 mps 762 mmHg 92%
    01:00 +22°C° 0.1 mm 4 mps 762 mmHg 92%
    02:00 +22°C° 0.1 mm 4 mps 761 mmHg 92%
    03:00 +22°C° 0.1 mm 4 mps 761 mmHg 92%
    04:00 +22°C° 0.1 mm 3 mps 761 mmHg 92%
    05:00 +22°C° 0.1 mm 3 mps 761 mmHg 92%
    06:00 +22°C° 0.1 mm 3 mps 761 mmHg 92%
    07:00 +24°C° 0.1 mm 3 mps 761 mmHg 85%
    08:00 +26°C° 0.1 mm 4 mps 761 mmHg 77%
    09:00 +28°C° 0.1 mm 4 mps 762 mmHg 70%
    10:00 +28°C° 0 mm 4 mps 761 mmHg 68%
    11:00 +29°C° 0 mm 5 mps 761 mmHg 65%
    12:00 +30°C° 0 mm 5 mps 760 mmHg 62%
    13:00 +30°C° 0 mm 5 mps 760 mmHg 64%
    14:00 +29°C° 0 mm 5 mps 759 mmHg 66%
    15:00 +29°C° 0 mm 5 mps 758 mmHg 68%
    16:00 +28°C° 0 mm 5 mps 758 mmHg 73%
    17:00 +27°C° 0 mm 5 mps 758 mmHg 78%
    18:00 +26°C° 0 mm 4 mps 758 mmHg 82%
    19:00 +26°C° 0.1 mm 4 mps 758 mmHg 85%
    20:00 +25°C° 0.1 mm 4 mps 759 mmHg 87%
    21:00 +25°C° 0.1 mm 4 mps 759 mmHg 90%
    22:00 +25°C° 0.1 mm 4 mps 759 mmHg 91%
    23:00 +23°C° 0.1 mm 4 mps 759 mmHg 92%

    22 November, Friday

    Time Temperature Precipitation Wind Pressure Humidity
    00:00 +23°C° 0.1 mm 4 mps 759 mmHg 93%
    01:00 +23°C° 0 mm 4 mps 758 mmHg 93%
    02:00 +23°C° 0 mm 4 mps 758 mmHg 93%
    03:00 +23°C° 0 mm 4 mps 757 mmHg 93%
    04:00 +23°C° 0 mm 4 mps 757 mmHg 93%
    05:00 +23°C° 0 mm 4 mps 757 mmHg 92%
    06:00 +23°C° 0 mm 4 mps 757 mmHg 92%
    07:00 +26°C° 0 mm 3 mps 757 mmHg 81%
    08:00 +28°C° 0 mm 3 mps 757 mmHg 71%
    09:00 +31°C° 0 mm 3 mps 757 mmHg 61%
    10:00 +33°C° 0 mm 3 mps 757 mmHg 55%
    11:00 +35°C° 0 mm 3 mps 757 mmHg 50%
    12:00 +37°C° 0 mm 4 mps 757 mmHg 45%
    13:00 +36°C° 0 mm 3 mps 756 mmHg 49%
    14:00 +35°C° 0 mm 3 mps 756 mmHg 53%
    15:00 +34°C° 0 mm 3 mps 756 mmHg 56%
    16:00 +31°C° 0.3 mm 3 mps 756 mmHg 64%
    17:00 +29°C° 0.3 mm 4 mps 757 mmHg 71%
    18:00 +27°C° 0.3 mm 5 mps 757 mmHg 78%
    19:00 +26°C° 0 mm 5 mps 758 mmHg 80%
    20:00 +26°C° 0 mm 6 mps 758 mmHg 83%
    21:00 +24°C° 0 mm 6 mps 759 mmHg 86%
    22:00 +24°C° 0 mm 6 mps 760 mmHg 87%
    23:00 +24°C° 0 mm 6 mps 760 mmHg 88%

    23 November, Saturday

    Time Temperature Precipitation Wind Pressure Humidity
    00:00 +23°C° 0 mm 5 mps 760 mmHg 90%
    01:00 +23°C° 0.1 mm 5 mps 760 mmHg 90%
    02:00 +23°C° 0.1 mm 5 mps 760 mmHg 90%
    03:00 +23°C° 0.1 mm 5 mps 760 mmHg 90%
    04:00 +23°C° 0.2 mm 5 mps 760 mmHg 90%
    05:00 +23°C° 0.2 mm 5 mps 761 mmHg 90%
    06:00 +22°C° 0.2 mm 5 mps 761 mmHg 91%
    07:00 +23°C° 0.1 mm 5 mps 761 mmHg 87%
    08:00 +23°C° 0.1 mm 5 mps 762 mmHg 83%
    09:00 +25°C° 0.1 mm 5 mps 762 mmHg 79%
    10:00 +23°C° 0.1 mm 5 mps 763 mmHg 77%
    11:00 +23°C° 0.1 mm 5 mps 763 mmHg 76%
    12:00 +23°C° 0.1 mm 5 mps 763 mmHg 74%
    13:00 +23°C° 0 mm 5 mps 762 mmHg 75%
    14:00 +22°C° 0 mm 5 mps 762 mmHg 75%
    15:00 +22°C° 0 mm 5 mps 762 mmHg 76%
    16:00 +21°C° 0 mm 5 mps 762 mmHg 78%
    17:00 +21°C° 0 mm 5 mps 762 mmHg 79%
    18:00 +20°C° 0 mm 5 mps 762 mmHg 81%
    19:00 +20°C° 0.1 mm 4 mps 762 mmHg 82%
    20:00 +20°C° 0.1 mm 4 mps 763 mmHg 82%
    21:00 +20°C° 0.1 mm 4 mps 763 mmHg 83%
    22:00 +20°C° 0 mm 3 mps 763 mmHg 83%
    23:00 +20°C° 0 mm 3 mps 764 mmHg 82%
    Show more